DLH722 EDDM-ZBAA

Flight info

Callsign DLH722
Flight time N/A
Altitude 37000
Route KIRDI3S KIRDI DCT BUWOQ DCT OBFEZ DCT STEIN DCT TEGRI DCT LUGEB DCT UDROS UM859 BAMUP/N0483F390 UM859 KARDE UL851 TBN UM11 REBLO M11 MATAL T916 BALUN/K0898F390 T916 LONSI/K0891F410 T916 PIGAL M610 RULAD/K0891S1250 A343 POSOT B215 FKG W188 LIKMI W270 DKO W69 GUVBA GUVBA7X
Aircraft A359/H-SDE2E3GHIJ1J3J4J5LM1ORWXYZ/LB1D1

Departure

Time 2026-05-06 21:02
Airport Munich Airport (EDDM)

Arrival

Time N/A
Airport Beijing Capital International Airport (ZBAA)
Time Latitude Longitude Altitude Speed Heading
2026-05-06 20:45 48.35015 11.79374 1492 ft 0 kts 263°
2026-05-06 20:55 48.35015 11.79375 1491 ft 1 kts 263°
2026-05-06 20:55 48.35018 11.79410 1487 ft 4 kts 263°
2026-05-06 20:55 48.35021 11.79450 1491 ft 4 kts 263°
2026-05-06 20:55 48.35024 11.79482 1491 ft 4 kts 252°
2026-05-06 20:56 48.35037 11.79514 1488 ft 4 kts 211°
2026-05-06 20:56 48.35060 11.79522 1491 ft 3 kts 173°
2026-05-06 20:56 48.35086 11.79518 1476 ft 3 kts 173°
2026-05-06 20:56 48.35090 11.79517 1491 ft 0 kts 173°
2026-05-06 20:58 48.35033 11.79527 1486 ft 15 kts 173°
2026-05-06 20:59 48.34909 11.79548 1485 ft 18 kts 173°
2026-05-06 20:59 48.34814 11.79584 1488 ft 12 kts 136°
2026-05-06 20:59 48.34802 11.79700 1483 ft 12 kts 87°
2026-05-06 20:59 48.34811 11.79822 1488 ft 12 kts 83°
2026-05-06 21:00 48.34822 11.79951 1492 ft 13 kts 83°
2026-05-06 21:00 48.34831 11.80089 1492 ft 13 kts 94°
2026-05-06 21:00 48.34786 11.80206 1485 ft 13 kts 138°
2026-05-06 21:00 48.34699 11.80247 1488 ft 14 kts 172°
2026-05-06 21:01 48.34602 11.80265 1488 ft 14 kts 173°
2026-05-06 21:01 48.34501 11.80279 1487 ft 14 kts 189°
2026-05-06 21:01 48.34455 11.80134 1481 ft 30 kts 263°
2026-05-06 21:01 48.34410 11.79533 1478 ft 86 kts 263°
2026-05-06 21:02 48.34321 11.78388 1481 ft 133 kts 263°
2026-05-06 21:02 48.34202 11.76858 1798 ft 146 kts 262°
2026-05-06 21:02 48.34098 11.75304 2227 ft 153 kts 264°
2026-05-06 21:02 48.34004 11.73698 2720 ft 156 kts 263°
2026-05-06 21:03 48.33697 11.72023 2840 ft 178 kts 239°
2026-05-06 21:03 48.32651 11.70960 3005 ft 202 kts 191°
2026-05-06 21:03 48.31196 11.70987 3353 ft 213 kts 183°
2026-05-06 21:03 48.29689 11.70985 3841 ft 220 kts 185°
2026-05-06 21:04 48.28156 11.71490 4344 ft 235 kts 159°
2026-05-06 21:04 48.26671 11.72778 4629 ft 257 kts 150°
2026-05-06 21:04 48.25155 11.74325 4919 ft 274 kts 149°
2026-05-06 21:04 48.23559 11.75985 5395 ft 283 kts 150°
2026-05-06 21:05 48.21913 11.77683 6013 ft 288 kts 151°
2026-05-06 21:05 48.20252 11.79419 6669 ft 294 kts 147°
2026-05-06 21:05 48.18872 11.81716 7412 ft 302 kts 121°
2026-05-06 21:05 48.18290 11.84696 8258 ft 303 kts 93°
2026-05-06 21:06 48.18399 11.87828 9092 ft 301 kts 84°
2026-05-06 21:06 48.18647 11.90958 9866 ft 302 kts 83°
2026-05-06 21:06 48.18897 11.94095 10558 ft 305 kts 84°
2026-05-06 21:06 48.19136 11.97273 11239 ft 308 kts 86°
2026-05-06 21:07 48.19372 12.00488 11933 ft 311 kts 86°
2026-05-06 21:07 48.19604 12.03726 12613 ft 313 kts 87°
2026-05-06 21:07 48.19832 12.06968 13217 ft 317 kts 87°
2026-05-06 21:07 48.20066 12.10298 13815 ft 322 kts 87°
2026-05-06 21:08 48.20301 12.13663 14390 ft 325 kts 87°
2026-05-06 21:08 48.20533 12.17022 14917 ft 330 kts 87°
2026-05-06 21:08 48.20774 12.20475 15468 ft 334 kts 87°
2026-05-06 21:08 48.21015 12.23972 16028 ft 337 kts 88°
2026-05-06 21:09 48.21256 12.27469 16656 ft 336 kts 89°
2026-05-06 21:09 48.21491 12.30949 17176 ft 340 kts 89°
2026-05-06 21:09 48.21729 12.34507 17681 ft 344 kts 89°
2026-05-06 21:09 48.21972 12.38104 18197 ft 347 kts 89°
2026-05-06 21:10 48.22212 12.41720 18688 ft 350 kts 89°
2026-05-06 21:10 48.22454 12.45367 19202 ft 353 kts 89°
2026-05-06 21:10 48.22695 12.49010 19694 ft 355 kts 89°
2026-05-06 21:10 48.22940 12.52724 20166 ft 358 kts 89°
2026-05-06 21:11 48.23100 12.56469 20615 ft 358 kts 96°
2026-05-06 21:11 48.22881 12.60207 20915 ft 363 kts 103°
2026-05-06 21:11 48.22519 12.64032 21136 ft 374 kts 103°
2026-05-06 21:11 48.22133 12.67953 21369 ft 385 kts 103°
2026-05-06 21:12 48.21741 12.71988 21594 ft 397 kts 103°
2026-05-06 21:12 48.21346 12.76086 21815 ft 407 kts 103°
2026-05-06 21:12 48.20949 12.80349 22043 ft 419 kts 101°
2026-05-06 21:12 48.20761 12.84774 22300 ft 431 kts 95°
2026-05-06 21:13 48.20748 12.89301 22704 ft 437 kts 93°
2026-05-06 21:13 48.20820 12.93886 23157 ft 441 kts 92°
2026-05-06 21:13 48.20923 12.98487 23628 ft 444 kts 92°
2026-05-06 21:13 48.21029 13.03144 24103 ft 447 kts 92°
2026-05-06 21:14 48.21124 13.07820 24552 ft 450 kts 92°
2026-05-06 21:14 48.21206 13.12523 24967 ft 453 kts 92°
2026-05-06 21:14 48.21276 13.17262 25385 ft 456 kts 93°
2026-05-06 21:14 48.21338 13.22029 25826 ft 459 kts 93°
2026-05-06 21:15 48.21396 13.26836 26214 ft 462 kts 93°
2026-05-06 21:15 48.21451 13.31679 26610 ft 465 kts 93°
2026-05-06 21:15 48.21505 13.36553 26983 ft 469 kts 93°
2026-05-06 21:15 48.21557 13.41463 27352 ft 472 kts 93°
2026-05-06 21:16 48.21608 13.46353 27722 ft 475 kts 93°
2026-05-06 21:16 48.21658 13.51347 28065 ft 479 kts 93°
2026-05-06 21:16 48.21707 13.56356 28413 ft 482 kts 93°
2026-05-06 21:16 48.21753 13.61360 28738 ft 485 kts 93°
2026-05-06 21:17 48.21797 13.66448 29033 ft 489 kts 93°
2026-05-06 21:17 48.21840 13.71561 29346 ft 492 kts 93°
2026-05-06 21:17 48.21881 13.76712 29663 ft 494 kts 93°
2026-05-06 21:17 48.21919 13.81836 29939 ft 498 kts 93°
2026-05-06 21:18 48.21956 13.87062 30198 ft 501 kts 93°
2026-05-06 21:18 48.21975 13.92295 30495 ft 502 kts 95°
2026-05-06 21:18 48.21667 13.97505 30768 ft 499 kts 104°
2026-05-06 21:18 48.20848 14.02477 31032 ft 494 kts 114°
2026-05-06 21:19 48.19634 14.07287 31300 ft 494 kts 117°
2026-05-06 21:19 48.18306 14.12043 31517 ft 495 kts 119°
2026-05-06 21:19 48.16913 14.16792 31777 ft 497 kts 119°
2026-05-06 21:19 48.15500 14.21523 32039 ft 498 kts 120°
2026-05-06 21:20 48.14079 14.26263 32255 ft 500 kts 120°
2026-05-06 21:20 48.13134 14.29421 32404 ft 502 kts 119°
2026-05-06 21:20 48.11230 14.35818 32707 ft 504 kts 119°
2026-05-06 21:20 48.09804 14.40623 32965 ft 504 kts 119°
2026-05-06 21:21 48.08386 14.45415 33293 ft 503 kts 119°
2026-05-06 21:21 48.06983 14.50152 33599 ft 502 kts 119°
2026-05-06 21:21 48.05562 14.54939 33855 ft 503 kts 119°
2026-05-06 21:21 48.04140 14.59723 34118 ft 502 kts 119°
2026-05-06 21:22 48.02717 14.64499 34408 ft 501 kts 120°
2026-05-06 21:22 48.01298 14.69250 34710 ft 499 kts 119°
2026-05-06 21:22 47.99902 14.73917 34971 ft 498 kts 119°
2026-05-06 21:22 47.98486 14.78634 35208 ft 498 kts 119°
2026-05-06 21:23 47.97062 14.83369 35393 ft 498 kts 119°
2026-05-06 21:23 47.95640 14.88084 35603 ft 498 kts 119°
2026-05-06 21:23 47.94216 14.92806 35822 ft 497 kts 119°
2026-05-06 21:23 47.92810 14.97459 36010 ft 497 kts 119°
2026-05-06 21:24 47.91380 15.02178 36166 ft 498 kts 119°
2026-05-06 21:24 47.89952 15.06885 36335 ft 498 kts 119°
2026-05-06 21:24 47.88520 15.11595 36492 ft 497 kts 119°
2026-05-06 21:24 47.87087 15.16303 36658 ft 498 kts 119°
2026-05-06 21:25 47.85673 15.20937 36826 ft 498 kts 119°
2026-05-06 21:25 47.82813 15.30291 36860 ft 493 kts 119°
2026-05-06 21:26 47.79972 15.39584 36859 ft 492 kts 118°
2026-05-06 21:26 47.77181 15.48821 36853 ft 492 kts 118°
2026-05-06 21:27 47.74368 15.58121 36850 ft 492 kts 118°